カタログに戻る

FREGAT R/B

運用中HEO
NORAD 37830·ROCKET BODY·🇷🇺 Russia

打ち上げ Oct 2, 2011 から Plesetsk Cosmodrome

Loading…

次のパス (今後24時間)

TLE

最新Source: Space-Track

元期: Sep 13, 2026, 02:09 UTC

1 37830U 11055B   26256.08963664  .00000003  00000-0  00000-0 0  9999
2 37830  65.1965  76.5065 0080955  92.1346 267.5369  2.09557389114390

AllMySatでFREGAT R/Bをリアルタイム追跡

Download on the App Store